EJU44F EHRD-EGSS

Flight info

Callsign EJU44F
Flight time 0h 38m
Altitude 24000
Route SOMEL2A ABNED L980 XAMAN XAMAN1A
Aircraft A20N/M-SDE2E3FGHIRWXY/LB1

Departure

Time 2026-05-07 15:54
Airport Rotterdam The Hague Airport (EHRD)

Arrival

Time 2026-05-07 16:33
Airport London Stansted Airport (EGSS)
Time Latitude Longitude Altitude Speed Heading
2026-05-07 15:47 51.95112 4.43489 -6 ft 0 kts 327°
2026-05-07 15:53 51.95194 4.43404 -6 ft 14 kts 326°
2026-05-07 15:53 51.95213 4.43333 -6 ft 6 kts 252°
2026-05-07 15:53 51.95202 4.43292 -6 ft 9 kts 241°
2026-05-07 15:53 51.95117 4.43019 -4 ft 28 kts 264°
2026-05-07 15:54 51.95220 4.42881 -3 ft 18 kts 25°
2026-05-07 15:54 51.95306 4.43069 -4 ft 44 kts 56°
2026-05-07 15:54 51.95659 4.43928 -6 ft 137 kts 57°
2026-05-07 15:54 51.96271 4.45494 649 ft 174 kts 55°
2026-05-07 15:55 51.96921 4.47217 1922 ft 183 kts 57°
2026-05-07 15:55 51.97731 4.48856 2923 ft 204 kts 33°
2026-05-07 15:55 51.99295 4.49442 3067 ft 266 kts 352°
2026-05-07 15:55 52.00926 4.48196 3067 ft 262 kts 315°
2026-05-07 15:56 52.01760 4.45604 3066 ft 264 kts 277°
2026-05-07 15:56 52.01473 4.42707 3062 ft 264 kts 240°
2026-05-07 15:56 52.00184 4.40666 3066 ft 262 kts 204°
2026-05-07 15:56 51.98491 4.39556 3037 ft 262 kts 204°
2026-05-07 15:57 51.97135 4.37656 3041 ft 264 kts 240°
2026-05-07 15:57 51.96494 4.34874 3034 ft 264 kts 255°
2026-05-07 15:57 51.96078 4.31981 3027 ft 264 kts 258°
2026-05-07 15:57 51.95744 4.29058 3017 ft 264 kts 260°
2026-05-07 15:58 51.95461 4.26158 3007 ft 264 kts 262°
2026-05-07 15:58 51.95204 4.23186 3110 ft 276 kts 262°
2026-05-07 15:58 51.94937 4.19911 3212 ft 312 kts 262°
2026-05-07 15:58 51.94642 4.16200 3722 ft 350 kts 262°
2026-05-07 15:59 51.94299 4.12127 4696 ft 377 kts 261°
2026-05-07 15:59 51.93914 4.07844 5972 ft 391 kts 260°
2026-05-07 15:59 51.93517 4.03545 7086 ft 374 kts 260°
2026-05-07 15:59 51.93103 3.99223 7465 ft 404 kts 260°
2026-05-07 16:00 51.92646 3.94569 7977 ft 427 kts 260°
2026-05-07 16:00 51.92181 3.89838 8476 ft 405 kts 260°
2026-05-07 16:00 51.91751 3.85435 8516 ft 404 kts 260°
2026-05-07 16:00 51.91333 3.81167 8519 ft 363 kts 260°
2026-05-07 16:01 51.90955 3.77292 8516 ft 338 kts 260°
2026-05-07 16:01 51.90586 3.73543 8609 ft 348 kts 259°
2026-05-07 16:01 51.90185 3.69530 9437 ft 369 kts 260°
2026-05-07 16:01 51.89767 3.65387 10747 ft 372 kts 260°
2026-05-07 16:02 51.89353 3.61266 12238 ft 370 kts 260°
2026-05-07 16:02 51.88942 3.57167 13700 ft 368 kts 260°
2026-05-07 16:02 51.88533 3.53096 15028 ft 365 kts 261°
2026-05-07 16:02 51.88341 3.49019 16352 ft 363 kts 274°
2026-05-07 16:03 51.88716 3.45004 17667 ft 360 kts 280°
2026-05-07 16:03 51.89202 3.41093 18866 ft 357 kts 281°
2026-05-07 16:03 51.89729 3.37121 19953 ft 356 kts 281°
2026-05-07 16:03 51.90245 3.33267 21007 ft 354 kts 281°
2026-05-07 16:04 51.90758 3.29382 22080 ft 352 kts 281°
2026-05-07 16:04 51.91260 3.25478 22808 ft 361 kts 281°
2026-05-07 16:04 51.91768 3.21393 23177 ft 378 kts 280°
2026-05-07 16:04 51.92278 3.17130 23581 ft 393 kts 280°
2026-05-07 16:05 51.92788 3.12751 23867 ft 397 kts 279°
2026-05-07 16:05 51.93367 3.08378 23988 ft 399 kts 286°
2026-05-07 16:05 51.94249 3.04111 24045 ft 400 kts 284°
2026-05-07 16:05 51.94834 2.99714 24065 ft 399 kts 279°
2026-05-07 16:06 51.95292 2.95289 24070 ft 398 kts 278°
2026-05-07 16:06 51.95712 2.90859 24080 ft 398 kts 278°
2026-05-07 16:06 51.96121 2.86424 24081 ft 398 kts 277°
2026-05-07 16:06 51.96529 2.81991 24083 ft 398 kts 277°
2026-05-07 16:07 51.96942 2.77535 24083 ft 406 kts 278°
2026-05-07 16:07 51.97378 2.72886 24090 ft 429 kts 278°
2026-05-07 16:07 51.97844 2.67993 24087 ft 450 kts 278°
2026-05-07 16:07 51.98338 2.62878 24087 ft 468 kts 278°
2026-05-07 16:08 51.98851 2.57630 24082 ft 471 kts 278°
2026-05-07 16:08 51.99368 2.52393 24086 ft 469 kts 278°
2026-05-07 16:08 51.99885 2.47170 24087 ft 469 kts 278°
2026-05-07 16:08 52.00404 2.41937 24088 ft 470 kts 278°
2026-05-07 16:09 52.00923 2.36696 24086 ft 470 kts 278°
2026-05-07 16:09 52.01442 2.31457 23984 ft 470 kts 278°
2026-05-07 16:09 52.01961 2.26190 23574 ft 475 kts 278°
2026-05-07 16:09 52.02480 2.20906 23080 ft 472 kts 278°
2026-05-07 16:10 52.02996 2.15647 22594 ft 472 kts 278°
2026-05-07 16:10 52.03511 2.10362 22107 ft 475 kts 278°
2026-05-07 16:10 52.04014 2.05198 21565 ft 432 kts 278°
2026-05-07 16:10 52.04468 2.00542 20263 ft 415 kts 278°
2026-05-07 16:11 52.04919 1.95877 19013 ft 419 kts 278°
2026-05-07 16:11 52.05352 1.91371 17766 ft 421 kts 278°
2026-05-07 16:11 52.05801 1.86660 16424 ft 425 kts 278°
2026-05-07 16:11 52.06251 1.81925 15140 ft 428 kts 278°
2026-05-07 16:12 52.06704 1.77122 13893 ft 433 kts 278°
2026-05-07 16:12 52.07148 1.72403 12829 ft 419 kts 278°
2026-05-07 16:12 52.07553 1.68109 12388 ft 378 kts 278°
2026-05-07 16:12 52.07950 1.63886 12210 ft 376 kts 277°
2026-05-07 16:13 52.08343 1.59688 12137 ft 374 kts 277°
2026-05-07 16:13 52.08717 1.55681 12108 ft 345 kts 277°
2026-05-07 16:13 52.09074 1.51825 12095 ft 346 kts 277°
2026-05-07 16:13 52.09429 1.47962 12087 ft 345 kts 277°
2026-05-07 16:14 52.09782 1.44104 12085 ft 346 kts 277°
2026-05-07 16:14 52.10134 1.40236 12082 ft 345 kts 277°
2026-05-07 16:14 52.10485 1.36379 12080 ft 345 kts 277°
2026-05-07 16:14 52.10771 1.32525 12078 ft 337 kts 269°
2026-05-07 16:15 52.10509 1.28887 11501 ft 321 kts 258°
2026-05-07 16:15 52.10053 1.25320 10828 ft 319 kts 256°
2026-05-07 16:15 52.09555 1.21821 10121 ft 316 kts 256°
2026-05-07 16:15 52.09047 1.18396 9350 ft 299 kts 255°
2026-05-07 16:16 52.08568 1.15235 8813 ft 283 kts 255°
2026-05-07 16:16 52.08095 1.12181 8446 ft 279 kts 255°
2026-05-07 16:16 52.07616 1.09136 8174 ft 274 kts 255°
2026-05-07 16:16 52.07132 1.06088 6999 ft 276 kts 255°
2026-05-07 16:17 52.06653 1.03121 5985 ft 267 kts 255°
2026-05-07 16:17 52.06193 1.00264 5428 ft 261 kts 255°
2026-05-07 16:17 52.05736 0.97415 5192 ft 262 kts 255°
2026-05-07 16:17 52.05292 0.94625 5089 ft 250 kts 255°
2026-05-07 16:18 52.04860 0.91897 5051 ft 250 kts 255°
2026-05-07 16:18 52.04429 0.89169 4904 ft 248 kts 255°
2026-05-07 16:18 52.04022 0.86574 4591 ft 227 kts 255°
2026-05-07 16:18 52.03643 0.84139 4064 ft 222 kts 255°
2026-05-07 16:19 52.03270 0.81708 3593 ft 221 kts 255°
2026-05-07 16:19 52.02907 0.79292 3086 ft 220 kts 255°
2026-05-07 16:19 52.02555 0.76894 2785 ft 213 kts 254°
2026-05-07 16:19 52.02289 0.74594 2620 ft 206 kts 263°
2026-05-07 16:20 52.02168 0.72260 2555 ft 209 kts 264°
2026-05-07 16:20 52.02056 0.69910 2523 ft 209 kts 264°
2026-05-07 16:20 52.01952 0.67542 2516 ft 210 kts 264°
2026-05-07 16:20 52.01848 0.65186 2511 ft 210 kts 264°
2026-05-07 16:21 52.01741 0.62829 2505 ft 209 kts 264°
2026-05-07 16:21 52.01637 0.60475 2503 ft 210 kts 264°
2026-05-07 16:21 52.01525 0.58117 2502 ft 209 kts 264°
2026-05-07 16:21 52.01416 0.55753 2507 ft 210 kts 265°
2026-05-07 16:22 52.01311 0.53384 2509 ft 210 kts 265°
2026-05-07 16:22 52.01225 0.51015 2516 ft 210 kts 263°
2026-05-07 16:22 52.01082 0.48722 2502 ft 191 kts 263°
2026-05-07 16:22 52.00976 0.46855 2494 ft 152 kts 263°
2026-05-07 16:23 52.00842 0.45132 2495 ft 153 kts 249°
2026-05-07 16:23 52.00348 0.43680 2502 ft 144 kts 237°
2026-05-07 16:23 51.99831 0.42350 2507 ft 145 kts 235°
2026-05-07 16:23 51.99268 0.41005 2515 ft 144 kts 233°
2026-05-07 16:24 51.98668 0.39693 2514 ft 145 kts 230°
2026-05-07 16:24 51.98036 0.38431 2520 ft 144 kts 229°
2026-05-07 16:24 51.97384 0.37184 2523 ft 145 kts 227°
2026-05-07 16:24 51.96721 0.35973 2486 ft 148 kts 226°
2026-05-07 16:25 51.95996 0.34773 2256 ft 145 kts 223°
2026-05-07 16:25 51.95263 0.33642 2038 ft 146 kts 221°
2026-05-07 16:25 51.94534 0.32548 1844 ft 144 kts 221°
2026-05-07 16:25 51.93795 0.31444 1635 ft 145 kts 221°
2026-05-07 16:26 51.93051 0.30314 1447 ft 145 kts 222°
2026-05-07 16:26 51.92568 0.29574 1328 ft 144 kts 221°
2026-05-07 16:26 51.91824 0.28466 1118 ft 146 kts 220°
2026-05-07 16:26 51.91087 0.27349 894 ft 145 kts 220°
2026-05-07 16:27 51.90103 0.25899 577 ft 144 kts 219°
2026-05-07 16:27 51.89370 0.24789 390 ft 146 kts 223°
2026-05-07 16:27 51.88671 0.23722 354 ft 122 kts 223°
2026-05-07 16:27 51.88002 0.22717 358 ft 151 kts 223°
2026-05-07 16:28 51.87484 0.21929 672 ft 147 kts 221°
2026-05-07 16:28 51.86709 0.20725 1180 ft 171 kts 221°
2026-05-07 16:28 51.85590 0.19962 1755 ft 187 kts 168°
2026-05-07 16:28 51.84595 0.21338 2109 ft 207 kts 110°
2026-05-07 16:29 51.84667 0.23406 2447 ft 191 kts 58°
2026-05-07 16:29 51.85707 0.24807 2785 ft 200 kts 30°
2026-05-07 16:29 51.86943 0.25940 2933 ft 211 kts 30°
2026-05-07 16:29 51.88171 0.27223 3050 ft 211 kts 38°
2026-05-07 16:30 51.89097 0.29066 3063 ft 212 kts 63°
2026-05-07 16:30 51.89472 0.31179 3116 ft 185 kts 85°
2026-05-07 16:30 51.89681 0.33283 2944 ft 195 kts 62°
2026-05-07 16:30 51.90670 0.34557 2707 ft 182 kts 11°
2026-05-07 16:31 51.91789 0.34065 2618 ft 164 kts 315°
2026-05-07 16:31 51.92162 0.32357 2570 ft 167 kts 274°
2026-05-07 16:31 51.92063 0.30482 2336 ft 168 kts 256°
2026-05-07 16:31 51.91673 0.28734 1830 ft 165 kts 240°
2026-05-07 16:32 51.90948 0.27305 1138 ft 163 kts 226°
2026-05-07 16:32 51.90139 0.25967 709 ft 165 kts 220°
2026-05-07 16:32 51.89300 0.24688 380 ft 165 kts 223°
2026-05-07 16:32 51.88530 0.23527 353 ft 125 kts 222°
2026-05-07 16:33 51.88130 0.22995 344 ft 30 kts 202°
2026-05-07 16:33 51.87948 0.22890 350 ft 25 kts 198°
2026-05-07 16:33 51.87832 0.22926 348 ft 15 kts 84°
2026-05-07 16:33 51.88006 0.23231 354 ft 58 kts 42°
2026-05-07 16:34 51.88390 0.23808 357 ft 83 kts 43°
2026-05-07 16:34 51.88875 0.24531 357 ft 94 kts 43°
2026-05-07 16:34 51.89302 0.25229 357 ft 63 kts 48°
2026-05-07 16:34 51.89412 0.25491 357 ft 18 kts 112°
2026-05-07 16:35 51.89228 0.25811 360 ft 43 kts 134°
2026-05-07 16:35 51.89168 0.25831 359 ft 8 kts 217°
2026-05-07 16:35 51.89146 0.25793 362 ft 0 kts 229°